DL3TR-13 Weather Reports


time (UTC)temp
C
wind
direction
speed
KPH
gust
KPH
rain 1hr
cm
rain 24hr
cm
rain mn
cm
humidity
%
barometer
mb
20260503204310 13 146 0.0 4.8 0.00 0.00 0.00 63 1013.2
20260503203310 13 202 1.6 1.6 0.00 0.00 0.00 64 1013.2
20260503202310 13 202 0.0 4.8 0.00 0.00 0.00 66 1013.2
20260503201310 12 201 1.6 3.2 0.00 0.00 0.00 66 1013.1
20260503200310 13 229 0.0 6.4 0.00 0.00 0.00 64 1013.0
20260503195310 13 232 1.6 3.2 0.00 0.00 0.00 64 1012.9
20260503194310 13 232 1.6 6.4 0.00 0.00 0.00 64 1012.8
20260503193310 14 224 1.6 1.6 0.00 0.00 0.00 60 1012.7
20260503192310 13 224 0.0 3.2 0.00 0.00 0.00 61 1012.6
20260503191310 14 224 1.6 3.2 0.00 0.00 0.00 61 1012.3
20260503190310 13 224 0.0 6.4 0.00 0.00 0.00 63 1012.2
20260503185310 13 240 1.6 11.3 0.00 0.00 0.00 63 1012.0
20260503184310 14 227 4.8 14.5 0.00 0.00 0.00 61 1011.9
20260503183310 15 229 6.4 16.1 0.00 0.00 0.00 59 1011.9
20260503182310 16 205 11.3 27.4 0.00 0.00 0.00 58 1011.8
20260503181310 16 221 11.3 20.9 0.00 0.00 0.00 66 1011.4
20260503180310 17 225 1.6 3.2 0.00 0.00 0.00 65 1011.1
20260503175310 17 225 0.0 1.6 0.00 0.00 0.00 61 1010.9
20260503174310 18 225 0.0 1.6 0.00 0.00 0.00 55 1010.9
20260503173310 18 225 0.0 0.0 0.00 0.00 0.00 57 1010.9
20260503172310 18 225 0.0 1.6 0.00 0.00 0.00 59 1010.9
20260503171310 18 225 0.0 3.2 0.00 0.00 0.00 60 1010.9
20260503170310 19 225 1.6 3.2 0.00 0.00 0.00 58 1010.9
20260503150310 21 253 4.8 8.0 0.00 0.00 0.00 44 1010.7
20260503140310 22 154 1.6 4.8 0.00 0.00 0.00 36 1010.9
20260503131310 22 250 6.4 12.9 0.00 0.00 0.00 43 1011.6
20260503130310 21 265 3.2 8.0 0.00 0.00 0.00 44 1011.6
20260503110311 22 215 6.4 12.9 0.00 0.00 0.00 42 1012.6
20260503090311 21 264 9.7 19.3 0.00 0.00 0.00 42 1013.7
20260503081311 20 252 3.2 8.0 0.00 0.00 0.00 40 1014.1
20260503080311 19 229 3.2 6.4 0.00 0.00 0.00 42 1014.0
20260503072311 18 265 0.0 6.4 0.00 0.00 0.00 43 1013.9
20260503071311 18 213 3.2 6.4 0.00 0.00 0.00 49 1013.9
20260503070311 17 91 0.0 1.6 0.00 0.00 0.00 45 1013.9
20260503060311 12 91 1.6 8.0 0.00 0.00 0.00 66 1014.1
20260503054312 10 91 1.6 4.8 0.00 0.00 0.00 72 1014.0
20260503053312 10 91 1.6 4.8 0.00 0.00 0.00 74 1014.1
20260503052311 9 91 1.6 4.8 0.00 0.00 0.00 75 1014.1
20260503051311 8 91 1.6 4.8 0.00 0.00 0.00 77 1014.0
20260503050311 7 91 1.6 3.2 0.00 0.00 0.00 78 1014.2
20260503045311 7 91 1.6 1.6 0.00 0.00 0.00 79 1014.3
20260503044311 7 91 0.0 3.2 0.00 0.00 0.00 79 1014.3
20260503043311 7 91 0.0 4.8 0.00 0.00 0.00 79 1014.3
20260503042311 7 91 0.0 3.2 0.00 0.00 0.00 79 1014.4
20260503041311 7 91 1.6 8.0 0.00 0.00 0.00 80 1014.4
20260503040311 7 91 1.6 4.8 0.00 0.00 0.00 80 1014.5
20260503035314 7 91 1.6 3.2 0.00 0.00 0.00 80 1014.4
20260503034312 7 91 0.0 3.2 0.00 0.00 0.00 80 1014.3
20260503033311 7 91 0.0 0.0 0.00 0.00 0.00 80 1014.3
20260503032312 7 91 0.0 1.6 0.00 0.00 0.00 80 1014.3
20260503031312 8 91 0.0 1.6 0.00 0.00 0.00 79 1014.4
20260503030311 8 91 0.0 4.8 0.00 0.00 0.00 79 1014.4
20260503025311 8 91 3.2 4.8 0.00 0.00 0.00 79 1014.6
20260503024311 8 91 1.6 4.8 0.00 0.00 0.00 79 1014.7
20260503023319 8 91 1.6 6.4 0.00 0.00 0.00 79 1014.7
20260503022311 8 341 3.2 6.4 0.00 0.00 0.00 81 1014.8
20260503021311 8 337 3.2 4.8 0.00 0.00 0.00 81 1014.9
20260503020311 7 337 3.2 4.8 0.00 0.00 0.00 84 1014.8
20260503015312 6 337 1.6 4.8 0.00 0.00 0.00 84 1015.0
20260503014311 7 337 0.0 3.2 0.00 0.00 0.00 81 1015.0
20260503013311 8 337 0.0 0.0 0.00 0.00 0.00 80 1014.9
20260503012311 8 337 0.0 3.2 0.00 0.00 0.00 77 1014.8
20260503011311 8 337 1.6 4.8 0.00 0.00 0.00 78 1014.8
20260503010311 8 337 1.6 4.8 0.00 0.00 0.00 79 1014.9
20260503005311 7 337 3.2 3.2 0.00 0.00 0.00 82 1014.9
20260503004311 7 337 0.0 0.0 0.00 0.00 0.00 80 1014.9
20260503003310 9 337 0.0 3.2 0.00 0.00 0.00 75 1015.0
20260503002311 10 337 1.6 3.2 0.00 0.00 0.00 75 1015.0
20260503001311 10 337 0.0 3.2 0.00 0.00 0.00 75 1015.1
20260503000311 10 337 1.6 4.8 0.00 0.00 0.00 74 1015.0
20260502235311 10 337 1.6 4.8 0.00 0.00 0.00 73 1015.1
20260502234311 10 337 3.2 4.8 0.00 0.00 0.00 73 1015.1
20260502233311 10 337 3.2 6.4 0.00 0.00 0.00 74 1015.2
20260502232311 10 334 3.2 6.4 0.00 0.00 0.00 76 1015.2
20260502231311 9 331 3.2 3.2 0.00 0.00 0.00 80 1015.2
20260502230311 8 331 0.0 0.0 0.00 0.00 0.00 79 1015.2
20260502225311 8 331 0.0 3.2 0.00 0.00 0.00 78 1015.1
20260502224311 9 331 0.0 0.0 0.00 0.00 0.00 78 1015.1
20260502223311 8 331 0.0 0.0 0.00 0.00 0.00 80 1015.2
20260502222311 8 331 0.0 4.8 0.00 0.00 0.00 77 1015.2
20260502221311 11 331 3.2 1.6 0.00 0.00 0.00 71 1015.0
20260502220311 11 331 0.0 3.2 0.00 0.00 0.00 68 1015.0
20260502215311 12 331 1.6 6.4 0.00 0.00 0.00 67 1015.0
20260502214311 12 331 3.2 4.8 0.00 0.00 0.00 67 1015.0
20260502213311 12 331 3.2 4.8 0.00 0.00 0.00 67 1015.1
20260502212311 12 331 4.8 6.4 0.00 0.00 0.00 66 1015.1
20260502211311 12 331 3.2 6.4 0.00 0.00 0.00 65 1015.2
20260502210311 13 330 3.2 6.4 0.00 0.00 0.00 64 1015.3
20260502205311 13 328 3.2 4.8 0.00 0.00 0.00 63 1015.4